When you browse on this site, cookies collect data to enhance your experience and personalize the content and advertising you see.
Visit our Privacy Policy to learn more. By continuing to use the site, you agree to this use of cookies and data.
  • In Deutschland
  • Länderverzeichnis
  • Für 7 Tage
  • Wassertemperatur
  • Wetterkarte
  • Widgets
  • user-avatar
    Anmelden

    Stündliche Wetter Kalat

    Heute, 19 September, Donnerstag

    Zeit Temperatur Niederschläge Wind Luftdruck Luftfeuchtigkeit
    00:00 +6°C° 0 mm 2 m/S 481 mmHg 35%
    01:00 +6°C° 0 mm 2 m/S 481 mmHg 36%
    02:00 +5°C° 0 mm 2 m/S 480 mmHg 38%
    03:00 +5°C° 0 mm 1 m/S 479 mmHg 38%
    04:00 +5°C° 0 mm 1 m/S 479 mmHg 38%
    05:00 +3°C° 0 mm 2 m/S 479 mmHg 38%
    06:00 +5°C° 0 mm 1 m/S 480 mmHg 34%
    07:00 +6°C° 0 mm 1 m/S 481 mmHg 29%
    08:00 +7°C° 0 mm 1 m/S 481 mmHg 25%
    09:00 +8°C° 0 mm 1 m/S 482 mmHg 22%
    10:00 +8°C° 0 mm 2 m/S 483 mmHg 19%
    11:00 +9°C° 0 mm 2 m/S 484 mmHg 16%
    12:00 +10°C° 0 mm 2 m/S 484 mmHg 15%
    13:00 +11°C° 0 mm 3 m/S 484 mmHg 14%
    14:00 +12°C° 0 mm 3 m/S 484 mmHg 13%
    15:00 +12°C° 0 mm 3 m/S 484 mmHg 14%
    16:00 +11°C° 0 mm 4 m/S 484 mmHg 14%
    17:00 +11°C° 0 mm 4 m/S 484 mmHg 15%
    18:00 +10°C° 0 mm 4 m/S 483 mmHg 18%
    19:00 +9°C° 0 mm 3 m/S 483 mmHg 21%
    20:00 +8°C° 0 mm 3 m/S 482 mmHg 25%
    21:00 +7°C° 0 mm 2 m/S 481 mmHg 27%
    22:00 +6°C° 0 mm 2 m/S 481 mmHg 30%
    23:00 +5°C° 0 mm 2 m/S 480 mmHg 33%

    Morgen, 20 September, Freitag

    Zeit Temperatur Niederschläge Wind Luftdruck Luftfeuchtigkeit
    00:00 +5°C° 0 mm 2 m/S 480 mmHg 35%
    01:00 +5°C° 0 mm 1 m/S 479 mmHg 37%
    02:00 +4°C° 0 mm 1 m/S 478 mmHg 39%
    03:00 +4°C° 0 mm 1 m/S 478 mmHg 40%
    04:00 +3°C° 0 mm 1 m/S 478 mmHg 40%
    05:00 +3°C° 0 mm 1 m/S 477 mmHg 41%
    06:00 +4°C° 0 mm 1 m/S 478 mmHg 37%
    07:00 +5°C° 0 mm 1 m/S 479 mmHg 33%
    08:00 +5°C° 0 mm 1 m/S 479 mmHg 29%
    09:00 +7°C° 0 mm 1 m/S 480 mmHg 26%
    10:00 +8°C° 0 mm 1 m/S 481 mmHg 23%
    11:00 +10°C° 0 mm 1 m/S 482 mmHg 19%
    12:00 +11°C° 0 mm 1 m/S 482 mmHg 18%
    13:00 +12°C° 0 mm 2 m/S 483 mmHg 16%
    14:00 +13°C° 0 mm 2 m/S 483 mmHg 14%
    15:00 +12°C° 0 mm 3 m/S 483 mmHg 15%
    16:00 +12°C° 0 mm 3 m/S 483 mmHg 16%
    17:00 +12°C° 0 mm 4 m/S 483 mmHg 17%
    18:00 +10°C° 0 mm 3 m/S 482 mmHg 21%
    19:00 +9°C° 0 mm 3 m/S 482 mmHg 25%
    20:00 +8°C° 0 mm 3 m/S 481 mmHg 29%
    21:00 +7°C° 0 mm 2 m/S 481 mmHg 32%
    22:00 +6°C° 0 mm 2 m/S 480 mmHg 34%
    23:00 +5°C° 0 mm 2 m/S 480 mmHg 37%

    übermorgen, 21 September, Samstag

    Zeit Temperatur Niederschläge Wind Luftdruck Luftfeuchtigkeit
    00:00 +6°C° 0 mm 1 m/S 479 mmHg 39%
    01:00 +5°C° 0 mm 1 m/S 478 mmHg 41%
    02:00 +4°C° 0 mm 1 m/S 478 mmHg 43%
    03:00 +4°C° 0 mm 1 m/S 477 mmHg 44%
    04:00 +3°C° 0 mm 1 m/S 477 mmHg 45%
    05:00 +3°C° 0 mm 1 m/S 477 mmHg 45%
    06:00 +4°C° 0 mm 1 m/S 477 mmHg 40%
    07:00 +5°C° 0 mm 1 m/S 478 mmHg 34%
    08:00 +6°C° 0 mm 1 m/S 479 mmHg 29%
    09:00 +8°C° 0 mm 1 m/S 480 mmHg 24%
    10:00 +9°C° 0 mm 0 m/S 481 mmHg 20%
    11:00 +10°C° 0 mm 0 m/S 482 mmHg 16%
    12:00 +13°C° 0 mm 1 m/S 483 mmHg 14%
    13:00 +14°C° 0 mm 1 m/S 483 mmHg 11%
    14:00 +15°C° 0 mm 2 m/S 483 mmHg 9%
    15:00 +15°C° 0 mm 2 m/S 483 mmHg 10%
    16:00 +14°C° 0 mm 3 m/S 483 mmHg 11%
    17:00 +14°C° 0 mm 3 m/S 483 mmHg 12%
    18:00 +13°C° 0 mm 2 m/S 483 mmHg 16%
    19:00 +12°C° 0 mm 2 m/S 482 mmHg 21%
    20:00 +11°C° 0 mm 1 m/S 481 mmHg 25%
    21:00 +10°C° 0 mm 1 m/S 481 mmHg 27%
    22:00 +9°C° 0 mm 1 m/S 480 mmHg 30%
    23:00 +7°C° 0 mm 0 m/S 480 mmHg 32%

    22 September, Sonntag

    Zeit Temperatur Niederschläge Wind Luftdruck Luftfeuchtigkeit
    00:00 +7°C° 0 mm 0 m/S 479 mmHg 32%
    01:00 +6°C° 0 mm 0 m/S 478 mmHg 32%
    02:00 +5°C° 0 mm 0 m/S 478 mmHg 32%
    03:00 +5°C° 0 mm 0 m/S 478 mmHg 30%
    04:00 +4°C° 0 mm 0 m/S 477 mmHg 28%
    05:00 +4°C° 0 mm 0 m/S 477 mmHg 27%
    06:00 +6°C° 0 mm 0 m/S 479 mmHg 22%
    07:00 +8°C° 0 mm 0 m/S 480 mmHg 18%
    08:00 +10°C° 0 mm 0 m/S 482 mmHg 13%
    09:00 +12°C° 0 mm 1 m/S 483 mmHg 11%
    10:00 +14°C° 0 mm 1 m/S 484 mmHg 9%
    11:00 +15°C° 0 mm 1 m/S 485 mmHg 7%
    12:00 +16°C° 0 mm 1 m/S 485 mmHg 7%
    13:00 +17°C° 0 mm 2 m/S 485 mmHg 6%
    14:00 +18°C° 0 mm 2 m/S 486 mmHg 6%
    15:00 +17°C° 0 mm 3 m/S 486 mmHg 7%
    16:00 +17°C° 0 mm 4 m/S 485 mmHg 8%
    17:00 +17°C° 0 mm 4 m/S 485 mmHg 10%
    18:00 +14°C° 0 mm 4 m/S 485 mmHg 14%
    19:00 +12°C° 0 mm 4 m/S 484 mmHg 19%
    20:00 +10°C° 0 mm 3 m/S 484 mmHg 23%
    21:00 +9°C° 0 mm 3 m/S 483 mmHg 26%
    22:00 +8°C° 0 mm 3 m/S 483 mmHg 28%
    23:00 +7°C° 0 mm 2 m/S 482 mmHg 31%

    23 September, Montag

    Zeit Temperatur Niederschläge Wind Luftdruck Luftfeuchtigkeit
    00:00 +7°C° 0 mm 2 m/S 482 mmHg 32%
    01:00 +6°C° 0 mm 2 m/S 481 mmHg 34%
    02:00 +6°C° 0 mm 1 m/S 481 mmHg 36%
    03:00 +5°C° 0 mm 1 m/S 480 mmHg 36%
    04:00 +5°C° 0 mm 1 m/S 479 mmHg 37%
    05:00 +4°C° 0 mm 1 m/S 479 mmHg 37%
    06:00 +5°C° 0 mm 1 m/S 480 mmHg 32%
    07:00 +6°C° 0 mm 1 m/S 481 mmHg 26%
    08:00 +8°C° 0 mm 1 m/S 482 mmHg 21%
    09:00 +10°C° 0 mm 1 m/S 483 mmHg 18%
    10:00 +11°C° 0 mm 1 m/S 484 mmHg 15%
    11:00 +13°C° 0 mm 1 m/S 485 mmHg 12%
    12:00 +15°C° 0 mm 1 m/S 485 mmHg 11%
    13:00 +16°C° 0 mm 2 m/S 486 mmHg 10%
    14:00 +17°C° 0 mm 2 m/S 486 mmHg 9%
    15:00 +16°C° 0 mm 3 m/S 486 mmHg 10%
    16:00 +16°C° 0 mm 3 m/S 486 mmHg 12%
    17:00 +15°C° 0 mm 4 m/S 485 mmHg 13%
    18:00 +13°C° 0 mm 3 m/S 485 mmHg 19%
    19:00 +13°C° 0 mm 2 m/S 484 mmHg 24%
    20:00 +10°C° 0 mm 2 m/S 483 mmHg 30%
    21:00 +10°C° 0 mm 1 m/S 483 mmHg 33%
    22:00 +9°C° 0 mm 1 m/S 482 mmHg 36%
    23:00 +9°C° 0 mm 1 m/S 482 mmHg 39%

    24 September, Dienstag

    Zeit Temperatur Niederschläge Wind Luftdruck Luftfeuchtigkeit
    00:00 +7°C° 0 mm 0 m/S 481 mmHg 39%
    01:00 +6°C° 0 mm 0 m/S 481 mmHg 40%
    02:00 +6°C° 0 mm 0 m/S 480 mmHg 41%
    03:00 +5°C° 0 mm 0 m/S 480 mmHg 41%
    04:00 +5°C° 0 mm 0 m/S 479 mmHg 41%
    05:00 +4°C° 0 mm 0 m/S 479 mmHg 41%
    06:00 +5°C° 0 mm 0 m/S 480 mmHg 35%
    07:00 +7°C° 0 mm 0 m/S 481 mmHg 30%
    08:00 +8°C° 0 mm 0 m/S 483 mmHg 24%
    09:00 +11°C° 0 mm 1 m/S 484 mmHg 21%
    10:00 +12°C° 0 mm 1 m/S 484 mmHg 17%
    11:00 +14°C° 0 mm 1 m/S 485 mmHg 14%
    12:00 +15°C° 0 mm 1 m/S 486 mmHg 13%
    13:00 +16°C° 0 mm 2 m/S 486 mmHg 12%
    14:00 +17°C° 0 mm 2 m/S 486 mmHg 11%
    15:00 +16°C° 0 mm 3 m/S 486 mmHg 14%
    16:00 +16°C° 0 mm 3 m/S 486 mmHg 17%
    17:00 +14°C° 0 mm 4 m/S 486 mmHg 20%
    18:00 +13°C° 0 mm 4 m/S 485 mmHg 28%
    19:00 +11°C° 0 mm 3 m/S 484 mmHg 36%
    20:00 +10°C° 0 mm 3 m/S 484 mmHg 44%
    21:00 +9°C° 0 mm 2 m/S 483 mmHg 47%
    22:00 +9°C° 0 mm 1 m/S 483 mmHg 50%
    23:00 +8°C° 0 mm 1 m/S 482 mmHg 53%
    Mehr zeigen